Weather History for Shannon, Ireland

Change the Weather History Date:

Monday, June 9, 2014

  Actual Average Record
Temperature  
Mean Temperature 59 °F -  
Max Temperature 64 °F 65 °F 75 °F (2007)
Min Temperature 54 °F 51 °F 42 °F (2011)
Degree Days  
Heating Degree Days 6    
Growing Degree Days 9 (Base 50)    
Moisture  
Dew Point 52 °F    
Average Humidity 80    
Maximum Humidity 94    
Minimum Humidity 51    
Precipitation  
Precipitation 0.16 in 0.08 in - ()
Sea Level Pressure  
Sea Level Pressure 29.85 in    
Wind  
Wind Speed 11 mph ()    
Max Wind Speed 21 mph    
Max Gust Speed 36 mph    
Visibility 8.6 miles    
Events Rain    
Averages and records for this station are not official NWS values.
T = Trace of Precipitation, MM = Missing Value Source: Averaged Metar Reports

Daily Weather History Graph

Daily Weather History Graph

Search for Another Location

Airport:

Trip Planner

Search our weather history database for the weather conditions in past years. The results will help you decide how hot, cold, wet, or windy it might be!

Date:

Astronomy

Jun. 09, 2014 Rise Set
Actual Time 5:12 AM IST 9:57 PM IST
Civil Twilight 4:23 AM IST 10:47 PM IST
Nautical Twilight 3:02 AM IST 12:08 AM IST
Astronomical Twilight Sun does not rise Sun does not rise
Moon 5:35 PM IST (6/9) 3:05 AM IST (6/9)
Length of Visible Light 18h 24m
Length of Day
16h 44m
Waxing Gibbous, 83% of the Moon is Illuminated
Jun 9
Waxing Gibbous
Jun 13
Full
Jun 19
Last Quarter
Jun 27
New
Jul 5
First Quarter

Hourly Weather History & Observations

Time (IST) Temp. Dew Point Humidity Pressure Visibility Wind Dir Wind Speed Gust Speed Precip Events Conditions
12:00 AM 56 °F 51 °F 77% 29.91 in 12 mi ESE 11.2 mph - - Rain Light Rain
12:00 AM 57.2 °F 51.8 °F 82% 29.89 in 6.2 mi ESE 17.3 mph - N/A Rain Light Rain
12:30 AM 55.4 °F 51.8 °F 88% 29.89 in - ESE 11.5 mph - N/A   Clear
1:00 AM 56 °F 52 °F 80% 29.91 in 12 mi SE 11.2 mph - - Rain Light Rain
1:00 AM 55.4 °F 51.8 °F 88% 29.89 in 6.2 mi SE 11.5 mph - N/A Rain Light Rain
1:30 AM 55.4 °F 51.8 °F 88% 29.89 in 6.2 mi ESE 8.1 mph - N/A Rain Light Rain
2:00 AM 55 °F 52 °F 87% 29.91 in 12 mi ESE 8.9 mph - - Rain Light Rain
2:00 AM 55.4 °F 51.8 °F 88% 29.89 in - ESE 8.1 mph - N/A   Clear
2:30 AM 55.4 °F 51.8 °F 88% 29.89 in 6.2 mi East 8.1 mph - N/A Rain Light Rain
3:00 AM 55 °F 53 °F 92% 29.90 in 12 mi ESE 8.9 mph - - Rain Light Rain
3:00 AM 55.4 °F 53.6 °F 94% 29.89 in 6.2 mi ESE 9.2 mph - N/A   Mostly Cloudy
3:30 AM 55.4 °F 53.6 °F 94% 29.89 in 4.3 mi ESE 8.1 mph - N/A Rain Light Rain Showers
4:00 AM 55 °F 53 °F 92% 29.89 in 12 mi ESE 8.9 mph - - Rain Light Rain Showers
4:00 AM 55.4 °F 53.6 °F 94% 29.89 in 6.2 mi ESE 9.2 mph - N/A   Scattered Clouds
4:30 AM 55.4 °F 53.6 °F 94% 29.86 in 6.2 mi ESE 9.2 mph - N/A   Scattered Clouds
5:00 AM 55 °F 53 °F 89% 29.89 in 7 mi ESE 11.2 mph - - Rain Light Rain Showers
5:00 AM 55.4 °F 53.6 °F 94% 29.89 in 6.2 mi ESE 11.5 mph - N/A Rain Light Rain
5:30 AM 55.4 °F 53.6 °F 94% 29.86 in 6.2 mi ESE 6.9 mph - N/A   Mostly Cloudy
6:00 AM 55 °F 51 °F 84% 29.88 in 7 mi SE 11.2 mph - - Rain Light Rain Showers
6:00 AM 55.4 °F 51.8 °F 88% 29.86 in 6.2 mi SE 10.4 mph - N/A   Mostly Cloudy
6:30 AM 55.4 °F 51.8 °F 88% 29.86 in 6.2 mi ESE 6.9 mph - N/A Rain Light Rain Showers
7:00 AM 55 °F 53 °F 92% 29.88 in 16 mi East 6.7 mph - - Rain Light Rain Showers
7:00 AM 55.4 °F 53.6 °F 94% 29.86 in 6.2 mi East 6.9 mph - N/A   Mostly Cloudy
7:30 AM 55.4 °F 53.6 °F 94% 29.86 in 6.2 mi East 9.2 mph - N/A   Mostly Cloudy
8:00 AM 57 °F 54 °F 88% 29.88 in 12 mi ESE 11.2 mph - -   Mostly Cloudy
8:00 AM 57.2 °F 53.6 °F 88% 29.86 in 6.2 mi ESE 10.4 mph - N/A   Mostly Cloudy
8:30 AM 57.2 °F 53.6 °F 88% 29.86 in 6.2 mi SE 12.7 mph - N/A   Mostly Cloudy
9:00 AM 58 °F 54 °F 83% 29.88 in 16 mi ESE 11.2 mph - - Rain Light Rain Showers
9:00 AM 57.2 °F 53.6 °F 88% 29.86 in 6.2 mi ESE 11.5 mph - N/A   Mostly Cloudy
9:30 AM 59.0 °F 53.6 °F 82% 29.86 in 6.2 mi SE 11.5 mph - N/A   Mostly Cloudy
10:00 AM 59 °F 54 °F 79% 29.88 in 16 mi SE 11.2 mph - - Rain Light Rain Showers
10:00 AM 59.0 °F 53.6 °F 82% 29.86 in 6.2 mi SE 11.5 mph - N/A Rain Light Rain Showers
10:30 AM 59.0 °F 53.6 °F 82% 29.86 in 6.2 mi SSE 13.8 mph - N/A   Mostly Cloudy
11:00 AM 59 °F 54 °F 79% 29.87 in 16 mi SE 11.2 mph - - Rain Light Rain Showers
11:00 AM 59.0 °F 53.6 °F 82% 29.86 in 6.2 mi SE 10.4 mph - N/A   Mostly Cloudy
11:30 AM 60.8 °F 53.6 °F 77% 29.86 in 6.2 mi SSE 16.1 mph - N/A   Mostly Cloudy
12:00 PM 62 °F 54 °F 68% 29.87 in 16 mi SSE 13.4 mph - - Rain Light Rain Showers
12:00 PM 62.6 °F 53.6 °F 72% 29.86 in 6.2 mi SSE 13.8 mph - N/A   Mostly Cloudy
12:30 PM 62.6 °F 51.8 °F 68% 29.86 in 6.2 mi SSE 16.1 mph - N/A   Mostly Cloudy
1:00 PM 63 °F 51 °F 55% 29.86 in 19 mi SSE 13.4 mph - -   Partly Cloudy
1:00 PM 62.6 °F 51.8 °F 68% 29.83 in 6.2 mi SSE 13.8 mph - N/A   Mostly Cloudy
1:30 PM 62.6 °F 51.8 °F 68% 29.83 in 6.2 mi SSE 16.1 mph - N/A   Mostly Cloudy
2:00 PM 59 °F 53 °F 76% 29.86 in 4 mi SE 20.1 mph - - Rain Light Rain Showers
2:00 PM 59.0 °F 53.6 °F 82% 29.86 in 4.3 mi SE 20.7 mph 35.7 mph N/A Rain Light Rain Showers
2:30 PM 60.8 °F 55.4 °F 82% 29.83 in 6.2 mi SE 11.5 mph - N/A Rain Light Rain Showers
3:00 PM 62 °F 55 °F 70% 29.85 in 19 mi SE 11.2 mph - - Rain Light Rain Showers
3:00 PM 62.6 °F 55.4 °F 77% 29.83 in 6.2 mi SE 11.5 mph - N/A   Mostly Cloudy
3:30 PM 59.0 °F 51.8 °F 77% 29.83 in 6.2 mi SSE 19.6 mph - N/A   Mostly Cloudy
4:00 PM 62 °F 52 °F 61% 29.83 in 16 mi SSE 17.9 mph - - Rain Light Rain Showers
4:00 PM 62.6 °F 51.8 °F 68% 29.83 in 6.2 mi SSE 17.3 mph - N/A   Mostly Cloudy
4:30 PM 62.6 °F 50.0 °F 63% 29.80 in 6.2 mi SSE 17.3 mph - N/A   Mostly Cloudy
5:00 PM 62 °F 51 °F 59% 29.83 in 12 mi ESE 13.4 mph - -   Partly Cloudy
5:00 PM 62.6 °F 51.8 °F 68% 29.80 in 6.2 mi ESE 13.8 mph - N/A   Scattered Clouds
5:30 PM 62.6 °F 50.0 °F 63% 29.80 in 6.2 mi SE 13.8 mph - N/A   Mostly Cloudy
6:00 PM 62 °F 48 °F 51% 29.82 in 16 mi SSE 15.7 mph - -   Partly Cloudy
6:00 PM 60.8 °F 48.2 °F 63% 29.80 in 6.2 mi SSE 15.0 mph - N/A   Mostly Cloudy
6:30 PM 60.8 °F 48.2 °F 63% 29.80 in 6.2 mi SE 16.1 mph - N/A   Mostly Cloudy
7:00 PM 60 °F 51 °F 64% 29.83 in 19 mi ESE 11.2 mph - -   Partly Cloudy
7:00 PM 60.8 °F 51.8 °F 72% 29.83 in 6.2 mi ESE 11.5 mph - N/A   Mostly Cloudy
7:30 PM 59.0 °F 51.8 °F 77% 29.83 in 4.3 mi ESE 11.5 mph - N/A Rain Light Rain Showers
8:00 PM 57 °F 53 °F 82% 29.83 in 7 mi SE 13.4 mph - - Rain Light Rain Showers
8:00 PM 57.2 °F 53.6 °F 88% 29.83 in 6.2 mi SE 13.8 mph - N/A Rain Light Rain Showers
8:30 PM 57.2 °F 53.6 °F 88% 29.83 in 6.2 mi SE 10.4 mph - N/A   Mostly Cloudy
9:00 PM 57 °F 53 °F 83% 29.83 in 16 mi SE 8.9 mph - - Rain Light Rain Showers
9:30 PM 57.2 °F 51.8 °F 82% 29.80 in 6.2 mi ESE 8.1 mph - N/A   Mostly Cloudy
10:00 PM 57 °F 53 °F 81% 29.83 in 12 mi ESE 6.7 mph - -   Partly Cloudy
10:00 PM 57.2 °F 53.6 °F 88% 29.83 in 6.2 mi ESE 5.8 mph - N/A   Mostly Cloudy
10:30 PM 55.4 °F 51.8 °F 88% 29.83 in 6.2 mi SE 9.2 mph - N/A   Mostly Cloudy
11:00 PM 55 °F 50 °F 78% 29.84 in 12 mi ESE 8.9 mph - - Rain Light Rain Showers
11:00 PM 55.4 °F 50.0 °F 82% 29.83 in 6.2 mi ESE 8.1 mph - N/A Rain Light Rain Showers
11:30 PM 55.4 °F 51.8 °F 88% 29.83 in 6.2 mi ESE 8.1 mph - N/A   Mostly Cloudy